DW5513 Weather Reports


Display with metric or nautical units.
time (UTC)temp
F
wind
direction
speed
MPH
gust
MPH
rain 1hr
in
rain 24hr
in
rain mn
in
humidity
%
barometer
mb
20260509183009 48 277 0.0 3.0 0.00 0.33 0.33 96 1010.1
20260509181507 47 268 0.0 1.0 0.00 0.33 0.33 96 1010.2
20260509180006 47 225 0.0 1.0 0.00 0.33 0.33 96 1010.3
20260509174505 47 73 0.0 1.0 0.00 0.33 0.33 96 1010.1
20260509173003 47 83 0.0 3.0 0.00 0.33 0.33 96 1010.2
20260509171501 47 358 0.0 1.0 0.01 0.33 0.33 95 1010.6
20260509170107 47 37 0.0 2.0 0.02 0.33 0.33 95 1010.6
20260509164559 46 302 0.0 0.0 0.05 0.33 0.33 95 1010.8
20260509163059 46 302 0.0 1.0 0.07 0.33 0.33 95 1011.1
20260509161552 45 240 0.0 1.0 0.08 0.32 0.32 95 1011.3
20260509160050 45 240 0.0 1.0 0.10 0.31 0.31 95 1011.5
20260509154549 45 327 0.0 2.0 0.10 0.28 0.28 95 1011.8
20260509153056 45 242 0.0 1.0 0.11 0.26 0.26 94 1011.9
20260509151546 44 236 0.0 2.0 0.11 0.24 0.24 94 1012.0
20260509150044 44 242 0.0 1.0 0.10 0.21 0.21 94 1012.1
20260509144542 44 165 0.0 1.0 0.08 0.18 0.18 93 1012.2
20260509143041 44 169 1.0 2.0 0.07 0.15 0.15 93 1012.4
20260509141540 44 235 0.0 1.0 0.06 0.13 0.13 92 1012.4
20260509140037 44 207 0.0 1.0 0.05 0.11 0.11 93 1012.2
20260509134535 43 207 0.0 0.0 0.06 0.10 0.10 93 1012.4
20260509133033 43 79 0.0 1.0 0.05 0.08 0.08 92 1012.3
20260509131532 42 79 0.0 0.0 0.05 0.07 0.07 93 1012.4
20260509130036 42 79 0.0 1.0 0.06 0.06 0.06 92 1012.5
20260509124534 42 64 0.0 1.0 0.04 0.04 0.04 91 1012.7
20260509123024 42 64 0.0 0.0 0.03 0.03 0.03 90 1012.9
20260509121526 42 63 0.0 0.0 0.01 0.01 0.01 86 1012.7
20260509120022 41 64 0.0 1.0 0.00 0.00 0.00 84 1012.8
20260509114519 41 63 0.0 1.0 0.00 0.00 0.00 84 1013.0
20260509113016 40 63 0.0 1.0 0.00 0.00 0.00 83 1013.0
20260509111513 39 62 0.0 2.0 0.00 0.00 0.00 85 1013.1
20260509110010 38 41 0.0 0.0 0.00 0.00 0.00 87 1013.0
20260509104510 37 44 0.0 3.0 0.00 0.00 0.00 86 1012.9
20260509103003 36 308 0.0 0.0 0.00 0.00 0.00 88 1012.9
20260509101502 35 8 0.0 1.0 0.00 0.00 0.00 88 1012.4
20260509100057 35 44 0.0 1.0 0.00 0.00 0.00 88 1012.6
20260509094605 34 88 0.0 1.0 0.00 0.00 0.00 88 1012.7
20260509093054 34 91 0.0 0.0 0.00 0.00 0.00 89 1012.9
20260509091556 33 76 0.0 2.0 0.00 0.00 0.00 90 1012.9
20260509090100 32 49 0.0 2.0 0.00 0.00 0.00 90 1012.9
20260509084554 32 57 0.0 1.0 0.00 0.00 0.00 91 1013.1
20260509083056 31 61 0.0 1.0 0.00 0.00 0.00 91 1013.1
20260509081546 31 57 0.0 2.0 0.00 0.00 0.00 91 1013.0
20260509080047 31 65 0.0 1.0 0.00 0.00 0.00 90 1013.1
20260509074546 31 65 0.0 2.0 0.00 0.00 0.00 90 1013.1
20260509073040 32 68 0.0 1.0 0.00 0.00 0.00 90 1013.1
20260509071543 32 84 0.0 1.0 0.00 0.00 0.00 90 1012.9
20260509070037 32 6 0.0 1.0 0.00 0.00 0.00 89 1013.0
20260509064536 32 53 0.0 1.0 0.00 0.00 0.00 89 1013.1
20260509063034 32 37 0.0 1.0 0.00 0.00 0.00 89 1013.3
20260509061533 33 1 0.0 2.0 0.00 0.00 0.00 88 1013.3
20260509060030 33 49 0.0 3.0 0.00 0.00 0.00 88 1013.5
20260509054532 33 29 0.0 3.0 0.00 0.00 0.00 88 1013.7
20260509053038 33 58 0.0 2.0 0.00 0.00 0.00 88 1013.8
20260509051525 33 74 1.0 3.0 0.00 0.00 0.00 88 1013.9
20260509050023 33 32 0.0 2.0 0.00 0.00 0.00 87 1014.1
20260509044521 33 99 0.0 2.0 0.00 0.00 0.00 87 1014.0
20260509043017 34 63 0.0 2.0 0.00 0.00 0.00 87 1013.9
20260509041516 34 52 0.0 2.0 0.00 0.00 0.00 87 1013.8
20260509040025 34 39 0.0 3.0 0.00 0.00 0.00 87 1013.5
20260509034512 35 58 0.0 2.0 0.00 0.00 0.00 87 1013.5
20260509033011 35 96 0.0 3.0 0.00 0.00 0.00 88 1013.5
20260509031511 35 60 0.0 1.0 0.00 0.00 0.00 88 1013.5
20260509030019 35 62 0.0 1.0 0.00 0.00 0.00 87 1013.5
20260509024513 36 62 0.0 0.0 0.00 0.00 0.00 87 1013.5
20260509023009 36 28 0.0 1.0 0.00 0.00 0.00 86 1013.7
20260509021508 37 28 0.0 1.0 0.00 0.00 0.00 84 1013.6
20260509020006 38 28 0.0 1.0 0.00 0.00 0.00 82 1013.5
20260509014505 39 25 1.0 2.0 0.00 0.00 0.00 82 1013.1
20260509013003 39 16 0.0 1.0 0.00 0.00 0.00 81 1013.0
20260509011503 40 77 0.0 0.0 0.00 0.00 0.00 76 1012.8
20260509010002 41 77 0.0 0.0 0.00 0.00 0.00 75 1012.6
20260509004505 43 77 0.0 0.0 0.00 0.00 0.00 71 1012.3
20260509003002 44 77 0.0 0.0 0.00 0.00 0.00 67 1012.1
20260509001501 46 75 0.0 0.0 0.00 0.00 0.00 62 1011.9
20260509000106 48 75 0.0 1.0 0.00 0.00 0.00 57 1011.8
20260508234601 50 72 0.0 4.0 0.00 0.00 0.00 52 1011.8
20260508233058 53 238 0.0 2.0 0.00 0.00 0.00 49 1011.7
20260508231558 53 283 2.0 5.0 0.00 0.00 0.00 48 1011.7
20260508230057 54 274 0.0 5.0 0.00 0.00 0.00 49 1011.8
20260508224635 53 271 2.0 5.0 0.00 0.00 0.00 49 1011.7
20260508223057 53 158 1.0 11.0 0.00 0.00 0.00 49 1011.7
20260508221557 53 18 1.0 6.0 0.00 0.00 0.00 48 1011.5
20260508220057 54 285 3.0 9.0 0.00 0.00 0.00 46 1011.5
20260508214559 53 247 3.0 11.0 0.00 0.00 0.00 46 1011.5
20260508213056 53 318 2.0 10.0 0.00 0.00 0.00 49 1011.6
20260508211555 54 340 4.0 8.0 0.00 0.00 0.00 48 1011.6
20260508210054 53 259 4.0 12.0 0.00 0.00 0.00 50 1011.5
20260508204552 54 323 2.0 9.0 0.00 0.00 0.00 50 1011.5
20260508203058 53 264 4.0 11.0 0.00 0.00 0.00 51 1011.7
20260508201554 52 328 4.0 10.0 0.00 0.00 0.00 52 1011.7
20260508200048 50 342 5.0 11.0 0.00 0.00 0.00 56 1011.7
20260508194546 51 345 1.0 9.0 0.00 0.00 0.00 57 1011.7
20260508193045 51 315 1.0 8.0 0.00 0.00 0.00 56 1011.5
20260508191549 52 250 2.0 10.0 0.00 0.00 0.00 57 1011.8
20260508190046 52 311 2.0 10.0 0.00 0.00 0.00 57 1011.7
20260508184546 52 295 3.0 10.0 0.00 0.00 0.00 56 1011.8